Weather History for San Jose, Costa Rica

Change the Weather History Date:

Tuesday, January 1, 2013

  Actual Average Record
Temperature  
Mean Temperature 76 °F -  
Max Temperature 84 °F 80 °F 86 °F (2003)
Min Temperature 67 °F 63 °F 62 °F (2003)
Cooling Degree Days 10    
Growing Degree Days 26 (Base 50)    
Moisture  
Dew Point 58 °F    
Average Humidity 57    
Maximum Humidity 73    
Minimum Humidity 32    
Precipitation  
Precipitation 0.00 in 0.01 in - ()
Sea Level Pressure  
Sea Level Pressure 29.93 in    
Wind  
Wind Speed 10 mph ()    
Max Wind Speed 20 mph    
Max Gust Speed 28 mph    
Visibility 8.3 miles    
Events      
Averages and records for this station are not official NWS values.
T = Trace of Precipitation, MM = Missing Value Source: Averaged Metar Reports

Daily Weather History Graph

Daily Weather History Graph

Search for Another Location

Airport:

Trip Planner

Search our weather history database for the weather conditions in past years. The results will help you decide how hot, cold, wet, or windy it might be!

Date:

Astronomy

Jan. 01, 2013 Rise Set
Actual Time 5:53 AM CST 5:27 PM CST
Civil Twilight 5:31 AM CST 5:50 PM CST
Nautical Twilight 5:04 AM CST 6:16 PM CST
Astronomical Twilight 4:38 AM CST 6:42 PM CST
Moon 9:06 PM CST (1/1) 8:51 AM CST (1/1)
Length of Visible Light 12h 18m
Length of Day
11h 33m
Waning Gibbous, 83% of the Moon is Illuminated
Jan 1
Waning Gibbous
Jan 4
Last Quarter
Jan 11
New
Jan 18
First Quarter
Jan 26
Full

Hourly Weather History & Observations

Time (CST) Temp. Heat Index Dew Point Humidity Pressure Visibility Wind Dir Wind Speed Gust Speed Precip Events Conditions
12:00 AM 69 °F - 58 °F 60% 29.86 in 12 mi ESE 8.1 mph - -  
12:00 AM 69.8 °F - 59.0 °F 68% 29.99 in - ESE 8.1 mph - N/A   Clear
1:00 AM 69.8 °F - 57.2 °F 64% 29.98 in - ESE 8.1 mph - N/A   Clear
2:00 AM 69.8 °F - 57.2 °F 64% 29.97 in - ESE 8.1 mph - N/A   Clear
3:00 AM 69 °F - 58 °F 60% 29.84 in 12 mi Calm Calm - -  
3:00 AM 68.0 °F - 59.0 °F 73% 29.96 in - East 6.9 mph - N/A   Clear
4:00 AM 68.0 °F - 59.0 °F 73% 29.96 in - ESE 9.2 mph - N/A   Clear
5:00 AM 68.0 °F - 59.0 °F 73% 29.97 in - ESE 10.4 mph - N/A   Clear
6:00 AM 69 °F - 59 °F 62% 29.85 in 12 mi East 8.1 mph - -   Scattered Clouds
6:00 AM 69.8 °F - 59.0 °F 68% 29.98 in 6.2 mi East 8.1 mph - N/A   Scattered Clouds
7:00 AM 69.8 °F - 59.0 °F 68% 29.99 in 6.2 mi East 10.4 mph - N/A   Scattered Clouds
8:00 AM 75.2 °F - 60.8 °F 61% 30.01 in 6.2 mi East 12.7 mph 24.2 mph N/A   Scattered Clouds
9:00 AM 79 °F - 58 °F 38% 29.83 in 12 mi East 13.8 mph - -   Scattered Clouds
9:00 AM 78.8 °F - 59.0 °F 51% 30.01 in 6.2 mi East 13.8 mph 25.3 mph N/A   Scattered Clouds
10:00 AM 77.0 °F - 57.2 °F 50% 30.02 in 6.2 mi East 15.0 mph 27.6 mph N/A   Scattered Clouds
11:00 AM 82.4 °F 82.5 °F 59.0 °F 45% 29.99 in 6.2 mi ENE 16.1 mph - N/A   Scattered Clouds
12:00 PM 83 °F - 58 °F 32% 29.80 in 12 mi East 12.7 mph - -   Scattered Clouds
12:00 PM 82.4 °F 82.5 °F 59.0 °F 45% 29.97 in 6.2 mi East 12.7 mph - N/A   Scattered Clouds
1:00 PM 82.4 °F 82.5 °F 59.0 °F 45% 29.95 in 6.2 mi ENE 12.7 mph - N/A   Scattered Clouds
2:00 PM 82.4 °F 82.5 °F 59.0 °F 45% 29.93 in 6.2 mi ENE 12.7 mph - N/A   Scattered Clouds
3:00 PM 82 °F - 58 °F 34% 29.74 in 12 mi East 17.3 mph - -   Overcast
3:00 PM 82.4 °F 82.5 °F 59.0 °F 45% 29.91 in 6.2 mi East 17.3 mph - N/A   Mostly Cloudy
4:00 PM 77.0 °F - 59.0 °F 54% 29.91 in 6.2 mi ENE 19.6 mph - N/A   Mostly Cloudy
5:00 PM 75.2 °F - 60.8 °F 61% 29.93 in 6.2 mi East 16.1 mph - N/A   Mostly Cloudy
6:00 PM 71 °F - 59 °F 56% 29.81 in 12 mi ESE 18.4 mph - -   Scattered Clouds
6:00 PM 71.6 °F - 59.0 °F 64% 29.94 in 6.2 mi ESE 18.4 mph - N/A   Scattered Clouds
7:00 PM 71.6 °F - 57.2 °F 60% 29.95 in 6.2 mi ESE 11.5 mph 23.0 mph N/A   Scattered Clouds
8:00 PM 69.8 °F - 57.2 °F 64% 29.98 in - ESE 19.6 mph - N/A   Clear
9:00 PM 69 °F - 54 °F 50% 29.83 in 12 mi ESE 8.1 mph - -   Scattered Clouds
9:00 PM 69.8 °F - 53.6 °F 56% 29.99 in - ESE 8.1 mph - N/A   Clear
10:00 PM 69.8 °F - 55.4 °F 60% 29.99 in - East 8.1 mph - N/A   Clear
11:00 PM 68.0 °F - 55.4 °F 64% 29.97 in - ESE 8.1 mph - N/A   Clear